Regional Weather Roundup
Issued by NWS Little Rock, AR

Home | Current Version | Previous Version | Text Only | Print | Product List | Glossary On
Versions: 1 2 3 4 5 6 7 8 9 10 11 12 13 14 15 16 17 18 19 20 21 22 23 24 25 26 27 28 29 30 31
000
ASUS44 KLZK 180505
RWRLZK

WEATHER ROUNDUP FOR ARKANSAS
NATIONAL WEATHER SERVICE LITTLE ROCK AR
1100 PM CST TUE JAN 17 2017

NOTE: "FAIR" INDICATES FEW OR NO CLOUDS BELOW 12,000 FEET WITH NO
SIGNIFICANT WEATHER AND/OR OBSTRUCTIONS TO VISIBILITY.

ARZ001-003-010-029-180600-
NORTHWEST ARKANSAS

CITY           SKY/WX    TMP DP  RH WIND       PRES   REMARKS
FAYETTEVILLE   PTCLDY    37  37 100 CALM      30.21S
FORT SMITH     PTCLDY    43  37  79 W5        30.21F
HARRISON       CLOUDY    39  37  92 W3        30.21R
BENTONVILLE    CLOUDY   N/A N/A N/A CALM      30.21F
ROGERS         CLOUDY    39  36  89 SW3       30.21F
SILOAM SPGS    CLOUDY    37  34  87 CALM      30.21F
HIGHFILL       CLOUDY    40  37  89 CALM      30.21S
$$

ARZ004-005-016-180600-
NORTH CENTRAL ARKANSAS

CITY           SKY/WX    TMP DP  RH WIND       PRES   REMARKS
BATESVILLE     CLOUDY    43  36  75 NW3       30.20S
FLIPPIN        CLOUDY    41  34  75 W5        30.20R
MTN HOME       CLOUDY    40  37  89 VRB3      30.21R
$$

ARZ040-041-180600-
WEST CENTRAL ARKANSAS

CITY           SKY/WX    TMP DP  RH WIND       PRES   REMARKS
MENA           CLOUDY    48  46  93 E3        30.19S
MOUNT IDA      PTCLDY    47  41  80 CALM      30.17F
$$

ARZ009-017-025-026-028-180600-
NORTHEAST ARKANSAS

CITY           SKY/WX    TMP DP  RH WIND       PRES   REMARKS
CORNING        FAIR      41  39  93 NW6       30.20S
JONESBORO      PTCLDY    42  40  92 CALM      30.18S
NEWPORT        MOCLDY    44  40  85 N7        30.20
WALNUT RIDGE   MOCLDY    41  36  81 NW3       30.19S
BLYTHEVILLE    CLOUDY    44  41  89 NE3       30.19S
$$

ARZ022-023-033-042-044-180600-
CENTRAL ARKANSAS

CITY           SKY/WX    TMP DP  RH WIND       PRES   REMARKS
LITTLE ROCK    CLOUDY    47  42  83 NW6       30.20R
N LITTLE ROCK    N/A     45  41  85 N3        30.21R
JACKSONVILLE   CLOUDY    47  42  81 W7        30.20R
SEARCY         CLOUDY    47  43  86 N7        30.20S
HOT SPRINGS    CLOUDY    50  45  83 NW7       30.20R
RUSSELLVILLE   CLOUDY    44  38  79 SW8       30.22R
CLINTON        FAIR      45  41  87 CALM      30.19R
$$

ARZ036-180600-
EAST ARKANSAS

CITY           SKY/WX    TMP DP  RH WIND       PRES   REMARKS
WEST MEMPHIS   CLOUDY    47  43  86 NE3       30.18F
$$

ARZ050-053-066-070-073-180600-
SOUTHWEST ARKANSAS

CITY           SKY/WX    TMP DP  RH WIND       PRES   REMARKS
ARKADELPHIA    FAIR      52  49  89 NW5       30.21R
CAMDEN         CLOUDY    52  48  87 CALM      30.19R
TEXARKANA      LGT RAIN  49  49 100 N6        30.18F
EL DORADO      CLOUDY    52  51  97 NW5       30.17R
DE QUEEN       CLOUDY    48  47  96 E5        30.16F
$$

ARZ056-057-069-180600-
SOUTHEAST ARKANSAS

CITY           SKY/WX    TMP DP  RH WIND       PRES   REMARKS
PINE BLUFF     CLOUDY    51  46  83 NE5       30.18R
STUTTGART      CLOUDY    48  39  71 NW6       30.19R
MONTICELLO     MOCLDY    53  51  93 CALM      30.16R

$$






USA.gov is the U.S. government's official web portal to all federal, state and local government web resources and services.